TimeMST,TemperatureF,Dew PointF,Humidity,Sea Level PressureIn,VisibilityMPH,Wind Direction,Wind SpeedMPH,Gust SpeedMPH,PrecipitationIn,Events,Conditions,WindDirDegrees,DateUTC
12:15 AM,37.4,21.2,52,29.87,10.0,SSE,6.9,-,N/A,,Overcast,150,2014-02-03 07:15:00
12:35 AM,35.6,21.2,56,29.87,10.0,SSW,8.1,-,N/A,,Overcast,200,2014-02-03 07:35:00
12:55 AM,35.6,21.2,56,29.87,10.0,SSW,6.9,-,N/A,,Mostly Cloudy,200,2014-02-03 07:55:00
1:15 AM,35.6,23.0,60,29.87,7.0,Calm,Calm,-,N/A,,Overcast,0,2014-02-03 08:15:00
1:35 AM,33.8,24.8,70,29.87,3.0,SSE,6.9,-,N/A,,Overcast,160,2014-02-03 08:35:00
1:55 AM,33.8,24.8,70,29.86,10.0,SE,4.6,-,N/A,,Overcast,130,2014-02-03 08:55:00
2:15 AM,33.8,24.8,70,29.86,10.0,East,5.8,-,N/A,,Overcast,90,2014-02-03 09:15:00
2:35 AM,32.0,24.8,75,29.86,3.0,East,8.1,-,N/A,,Overcast,90,2014-02-03 09:35:00
2:55 AM,32.0,24.8,75,29.85,5.0,East,5.8,-,N/A,,Overcast,90,2014-02-03 09:55:00
3:15 AM,32.0,24.8,75,29.85,7.0,NE,5.8,-,N/A,,Mostly Cloudy,40,2014-02-03 10:15:00
3:35 AM,33.8,24.8,70,29.85,10.0,East,5.8,-,N/A,,Overcast,80,2014-02-03 10:35:00
3:55 AM,33.8,26.6,75,29.85,10.0,East,4.6,-,N/A,,Overcast,100,2014-02-03 10:55:00
4:15 AM,33.8,24.8,70,29.84,5.0,East,8.1,-,N/A,,Overcast,100,2014-02-03 11:15:00
4:35 AM,33.8,24.8,70,29.84,10.0,SE,6.9,-,N/A,,Overcast,140,2014-02-03 11:35:00
4:55 AM,33.8,24.8,70,29.84,5.0,SSE,10.4,-,N/A,,Overcast,150,2014-02-03 11:55:00
5:15 AM,33.8,24.8,70,29.83,7.0,SE,10.4,-,N/A,,Mostly Cloudy,140,2014-02-03 12:15:00
5:35 AM,33.8,24.8,70,29.83,10.0,SE,11.5,-,N/A,,Overcast,140,2014-02-03 12:35:00
5:55 AM,33.8,24.8,70,29.83,9.0,SE,9.2,-,N/A,,Overcast,130,2014-02-03 12:55:00
6:15 AM,33.8,24.8,70,29.83,10.0,South,5.8,-,0.01,,Overcast,180,2014-02-03 13:15:00
6:35 AM,33.8,24.8,70,29.86,10.0,West,10.4,-,0.01,,Overcast,270,2014-02-03 13:35:00
6:55 AM,32.0,24.8,75,29.86,3.0,West,4.6,-,0.01,,Mostly Cloudy,280,2014-02-03 13:55:00
7:15 AM,32.0,24.8,75,29.86,10.0,Calm,Calm,-,N/A,,Overcast,0,2014-02-03 14:15:00
7:35 AM,30.2,24.8,80,29.86,10.0,West,4.6,-,N/A,,Overcast,270,2014-02-03 14:35:00
7:55 AM,32.0,24.8,75,29.87,10.0,West,6.9,-,N/A,,Overcast,270,2014-02-03 14:55:00
8:15 AM,32.0,24.8,75,29.88,10.0,West,6.9,-,N/A,,Overcast,260,2014-02-03 15:15:00
8:35 AM,32.0,24.8,75,29.89,10.0,West,6.9,-,N/A,,Overcast,280,2014-02-03 15:35:00
8:55 AM,32.0,24.8,75,29.90,10.0,West,8.1,-,N/A,,Overcast,280,2014-02-03 15:55:00
9:15 AM,30.2,21.2,69,29.90,10.0,WNW,10.4,-,N/A,,Overcast,290,2014-02-03 16:15:00
9:35 AM,30.2,19.4,64,29.90,10.0,NW,9.2,-,N/A,,Overcast,310,2014-02-03 16:35:00
9:55 AM,30.2,19.4,64,29.91,10.0,NW,9.2,-,N/A,,Overcast,310,2014-02-03 16:55:00
10:15 AM,30.2,19.4,64,29.92,10.0,NW,10.4,-,N/A,,Mostly Cloudy,320,2014-02-03 17:15:00
10:35 AM,30.2,19.4,64,29.92,10.0,NW,10.4,-,N/A,,Scattered Clouds,320,2014-02-03 17:35:00
10:55 AM,30.2,19.4,64,29.92,10.0,NW,10.4,-,N/A,,Partly Cloudy,320,2014-02-03 17:55:00
11:15 AM,30.2,19.4,64,29.93,10.0,NW,9.2,-,N/A,,Clear,310,2014-02-03 18:15:00
11:35 AM,32.0,19.4,60,29.93,10.0,NW,9.2,-,N/A,,Partly Cloudy,320,2014-02-03 18:35:00
11:55 AM,33.8,19.4,56,29.93,10.0,WNW,11.5,-,N/A,,Mostly Cloudy,300,2014-02-03 18:55:00
12:15 PM,32.0,17.6,55,29.94,10.0,NW,12.7,-,N/A,,Scattered Clouds,320,2014-02-03 19:15:00
12:35 PM,33.8,19.4,56,29.94,10.0,NW,12.7,-,N/A,,Clear,310,2014-02-03 19:35:00
12:55 PM,33.8,17.6,52,29.93,10.0,NW,10.4,-,N/A,,Partly Cloudy,310,2014-02-03 19:55:00
1:15 PM,33.8,19.4,56,29.93,10.0,NW,13.8,-,N/A,,Partly Cloudy,310,2014-02-03 20:15:00
1:35 PM,35.6,19.4,52,29.93,10.0,NW,12.7,-,N/A,,Scattered Clouds,320,2014-02-03 20:35:00
1:55 PM,35.6,19.4,52,29.93,10.0,WNW,12.7,-,N/A,,Mostly Cloudy,300,2014-02-03 20:55:00
2:15 PM,35.6,21.2,56,29.92,10.0,North,12.7,-,N/A,,Overcast,350,2014-02-03 21:15:00
2:35 PM,35.6,21.2,56,29.92,10.0,NNW,8.1,-,N/A,,Overcast,340,2014-02-03 21:35:00
2:55 PM,35.6,21.2,56,29.92,10.0,North,9.2,-,N/A,,Mostly Cloudy,10,2014-02-03 21:55:00
3:15 PM,35.6,21.2,56,29.92,10.0,North,10.4,-,N/A,,Mostly Cloudy,360,2014-02-03 22:15:00
3:35 PM,35.6,19.4,52,29.91,10.0,North,8.1,-,N/A,,Scattered Clouds,10,2014-02-03 22:35:00
3:55 PM,35.6,19.4,52,29.91,10.0,NNE,8.1,-,N/A,,Overcast,20,2014-02-03 22:55:00
4:15 PM,35.6,19.4,52,29.91,10.0,North,6.9,-,N/A,,Overcast,360,2014-02-03 23:15:00
4:35 PM,35.6,19.4,52,29.92,10.0,North,6.9,-,N/A,,Overcast,360,2014-02-03 23:35:00
4:55 PM,33.8,19.4,56,29.92,10.0,North,8.1,-,N/A,,Overcast,350,2014-02-03 23:55:00
5:15 PM,33.8,19.4,56,29.92,10.0,North,5.8,-,N/A,,Overcast,350,2014-02-04 00:15:00
5:35 PM,33.8,19.4,56,29.92,10.0,North,8.1,-,N/A,,Overcast,360,2014-02-04 00:35:00
5:55 PM,32.0,19.4,60,29.92,10.0,NW,4.6,-,N/A,,Overcast,320,2014-02-04 00:55:00
6:15 PM,33.8,19.4,56,29.93,10.0,WSW,8.1,-,N/A,,Mostly Cloudy,250,2014-02-04 01:15:00
6:35 PM,32.0,21.2,64,29.92,10.0,SW,6.9,-,N/A,,Overcast,220,2014-02-04 01:35:00
6:55 PM,32.0,21.2,64,29.93,10.0,NNW,6.9,-,N/A,,Overcast,330,2014-02-04 01:55:00
7:15 PM,30.2,21.2,69,29.94,10.0,West,5.8,-,N/A,,Overcast,270,2014-02-04 02:15:00
7:35 PM,30.2,21.2,69,29.94,10.0,West,8.1,-,N/A,,Overcast,270,2014-02-04 02:35:00
7:55 PM,30.2,21.2,69,29.94,10.0,West,5.8,-,N/A,,Overcast,270,2014-02-04 02:55:00
8:15 PM,30.2,21.2,69,29.95,10.0,West,5.8,-,N/A,,Overcast,270,2014-02-04 03:15:00
8:35 PM,30.2,21.2,69,29.95,10.0,West,4.6,-,N/A,,Overcast,270,2014-02-04 03:35:00
8:55 PM,30.2,21.2,69,29.96,10.0,Calm,Calm,-,N/A,,Overcast,0,2014-02-04 03:55:00
9:15 PM,30.2,21.2,69,29.96,10.0,NW,4.6,-,N/A,,Overcast,310,2014-02-04 04:15:00
9:35 PM,30.2,21.2,69,29.96,10.0,WNW,6.9,-,N/A,,Overcast,300,2014-02-04 04:35:00
9:55 PM,30.2,19.4,64,29.96,10.0,WNW,6.9,-,N/A,,Mostly Cloudy,300,2014-02-04 04:55:00
10:15 PM,30.2,19.4,64,29.96,10.0,West,9.2,-,N/A,,Mostly Cloudy,280,2014-02-04 05:15:00
10:35 PM,30.2,19.4,64,29.96,10.0,WNW,9.2,-,N/A,,Partly Cloudy,290,2014-02-04 05:35:00
10:55 PM,28.4,19.4,69,29.97,10.0,WNW,10.4,-,N/A,,Clear,300,2014-02-04 05:55:00
11:15 PM,28.4,17.6,64,29.97,10.0,WNW,10.4,-,N/A,,Clear,300,2014-02-04 06:15:00
11:35 PM,28.4,17.6,64,29.97,10.0,NW,10.4,-,N/A,,Partly Cloudy,310,2014-02-04 06:35:00
11:55 PM,28.4,17.6,64,29.98,10.0,WNW,10.4,-,N/A,,Mostly Cloudy,300,2014-02-04 06:55:00